This demonstration page uses our WeatherBlox Daily Observations layout. Learn more.

Left ArrowRight Arrow

41.86663, -103.66717

Hourly Observations for March 7, 2021

Temp ( °F °C ) Dew Point ( °F °C ) Humidity (%) Winds ( mph kmh ) Pressure ( in mb ) Visibility ( mi km ) Precip ( " mm )
12:53 am 00:53 Clear 31 -0.6 20 -6.7 64 64 NE 3 6 29.86 1011 10 16.0934 0 0
1:53 am 01:53 Clear 33 0.6 21 -6.1 61 61 Calm 29.87 1011 10 16.0934 0 0
2:53 am 02:53 Clear 27 -2.8 20 -6.7 75 75 NNE 3 6 29.88 1012 10 16.0934 0 0
3:53 am 03:53 Clear 31 -0.6 20 -6.7 64 64 NNE 7 11 29.89 1012 10 16.0934 0 0
4:53 am 04:53 Clear 28 -2.2 18 -7.8 66 66 W 5 7 29.93 1014 10 16.0934 0 0
5:53 am 05:53 Clear 27 -2.8 18 -7.8 69 69 NNW 8 13 29.98 1015 10 16.0934 0 0
6:53 am 06:53 Sunny 31 -0.6 19 -7.2 61 61 NW 5 7 30.04 1017 10 16.0934 0 0
7:53 am 07:53 Sunny 40 4.4 21 -6.1 47 47 WNW 5 7 30.04 1017 10 16.0934 0 0
8:53 am 08:53 Sunny 50 10 25 -3.9 38 38 W 10 17 30.04 1017 10 16.0934 0 0
9:53 am 09:53 Sunny 56 13.3 26 -3.3 32 32 NW 9 15 30.05 1018 10 16.0934 0 0
10:53 am 10:53 Sunny 59 15 24 -4.4 26 26 W 7 11 30.04 1017 10 16.0934 0 0
11:53 am 11:53 Sunny 63 17.2 23 -5 22 22 undefined N/A 30.04 1017 10 16.0934 0 0
12:53 pm 12:53 Sunny 66 18.9 23 -5 19 19 undefined N/A 30.02 1017 10 16.0934 0 0
1:53 pm 13:53 Sunny 64 17.8 22 -5.6 20 20 W 5 7 30.01 1016 10 16.0934 0 0
2:53 pm 14:53 Sunny 67 19.4 22 -5.6 18 18 S 3 6 30.02 1017 10 16.0934 0 0
3:53 pm 15:53 Sunny 67 19.4 21 -6.1 17 17 VRB 5 7 30.01 1016 10 16.0934 0 0
4:53 pm 16:53 Sunny 65 18.3 23 -5 20 20 E 3 6 30.02 1017 10 16.0934 0 0
5:53 pm 17:53 Clear 54 12.2 24 -4.4 31 31 E 7 11 30.06 1018 10 16.0934 0 0
6:53 pm 18:53 Clear 50 10 23 -5 35 35 E 7 11 30.09 1019 10 16.0934 0 0
7:53 pm 19:53 Clear 45 7.2 24 -4.4 44 44 E 7 11 30.09 1019 10 16.0934 0 0
8:53 pm 20:53 Clear 44 6.7 23 -5 43 43 Calm 30.08 1019 10 16.0934 0 0
9:53 pm 21:53 Clear 40 4.4 23 -5 51 51 E 7 11 30.09 1019 10 16.0934 0 0
10:53 pm 22:53 Clear 39 3.9 23 -5 53 53 E 7 11 30.07 1018 10 16.0934 0 0
11:53 pm 23:53 Clear 37 2.8 23 -5 57 57 NE 8 13 30.05 1018 10 16.0934 0 0

Powered by AerisWeather